(355406) = 2007 UU76

Discovered at Mount Lemmon on 2007-10-31 by Mt. Lemmon Survey.

Orbit

Orbit type: Main Belt

Note: WebGL enabled browser required.

epoch2022-01-21.0
epoch JD2459600.5
perihelion date2021-02-08.88834
perihelion JD2459254.38834
argument of perihelion (°)68.98660
ascending node (°)33.24284
inclination (°)4.31356
eccentricity0.1272516
perihelion distance (AU)2.2902426
Tisserand w.r.t. Jupiter3.4
ΔV w.r.t. Earth (km/sec)9.6
semimajor axis (AU)2.6241728
mean anomaly (°)80.24749
mean daily motion (°/day)0.23185430
aphelion distance (AU)2.958
period (years)4.25
P-vector [x]-0.21037732
P-vector [y]0.86670378
P-vector [z]0.45228967
Q-vector [x]-0.97675039
Q-vector [y]-0.20585522
Q-vector [z]-0.05985243
absolute magnitude17.64
phase slope0.15
uncertainty0
referenceMPO 698195
observations used109
oppositions11
arc length (days)6733
first opposition used2003
last opposition used2022
residual rms (arc-secs)0.79
perturbers coarse indicatorM-v
perturbers precise indicator003Ek
first observation date used2003-11-20.0
last observation date used2022-04-27.0
computer namePan
JD of orbit computation2456376.468221
perihelion JD uncertainty (days)2.0106E-04
argument of perihelion uncertainty (°)7.3532E-05
ascending node uncertainty (°)5.2461E-05
inclination uncertainty (°)7.9441E-06
eccentricity uncertainty 3.8348E-08
perihelion distance uncertainty (AU)9.4531E-08
Minimum Orbit Intersection Distances (in AU)
for orbit epoch: 2458200.5, reference: MPO402424
Mercury1.98215
Venus1.57905
Earth1.31732
Mars0.679667
Jupiter2.18199
Saturn6.7889
Uranus15.636
Neptune27.148

Observations

110 total observations over interval: 2003 11 20.45451 – 2022 04 27.467644
These data are available for download (format description).

Date (UT) J2000 RA J2000 Dec Magn Location Ref
2003 11 20.45451 06 12 09.34 +28 20 58.2 20.0 R 695 – Kitt Peak MPS 250545
2003 11 20.51402 06 12 07.50 +28 21 08.9   695 – Kitt Peak MPS 250545
2005 05 14.31904 14 14 19.87 -14 37 27.9 21.3 R G96 – Mt. Lemmon Survey MPS 250545
2005 05 14.32697 14 14 19.42 -14 37 26.6 21.2 R G96 – Mt. Lemmon Survey MPS 250546
2005 05 14.33490 14 14 19.04 -14 37 25.0 21.9 R G96 – Mt. Lemmon Survey MPS 250546
2005 05 14.34284 14 14 18.63 -14 37 24.3 21.7 R G96 – Mt. Lemmon Survey MPS 250546
2007 09 10.41414 03 32 20.58 +19 06 06.9 22.5 V G96 – Mt. Lemmon Survey MPS 250546
2007 09 10.42015 03 32 20.76 +19 06 07.8 21.7 V G96 – Mt. Lemmon Survey MPS 250546
2007 09 10.42611 03 32 20.94 +19 06 09.4 22.1 V G96 – Mt. Lemmon Survey MPS 250546
2007 09 10.43210 03 32 21.08 +19 06 10.2 21.3 V G96 – Mt. Lemmon Survey MPS 250546
2007 09 18.40435 03 35 28.82 +19 30 00.7 21.4 V G96 – Mt. Lemmon Survey MPS 250546
2007 09 18.40956 03 35 28.93 +19 30 01.2 21.4 V G96 – Mt. Lemmon Survey MPS 250546
2007 09 18.41518 03 35 29.04 +19 30 02.5 21.6 V G96 – Mt. Lemmon Survey MPS 250546
2007 09 18.42012 03 35 29.07 +19 30 03.4 21.8 V G96 – Mt. Lemmon Survey MPS 250546
2007 10 15.44355 03 32 31.85 +20 14 17.7 20.7 V 691 – Steward Observatory, Kitt Peak-Spacewatch MPS 250546
2007 10 15.46125 03 32 31.29 +20 14 18.1 20.8 V 691 – Steward Observatory, Kitt Peak-Spacewatch MPS 250546
2007 10 15.47897 03 32 30.67 +20 14 18.3 21.3 V 691 – Steward Observatory, Kitt Peak-Spacewatch MPS 250546
2007 10 31.26541 03 21 03.63 +20 10 00.1 20.5 V G96 – Mt. Lemmon Survey MPS 225124
2007 10 31.27379 03 21 03.13 +20 09 59.7 20.3 V G96 – Mt. Lemmon Survey MPS 225124
2007 10 31.28214 03 21 02.70 +20 09 59.3 20.9 V G96 – Mt. Lemmon Survey MPS 225124
2007 10 31.29054 03 21 02.19 +20 09 58.5 20.2 V G96 – Mt. Lemmon Survey MPS 225124
2007 11 02.19881 03 19 17.27 +20 07 54.1 20.7 V 691 – Steward Observatory, Kitt Peak-Spacewatch MPS 225124
2007 11 02.21646 03 19 16.27 +20 07 53.4 20.4 V 691 – Steward Observatory, Kitt Peak-Spacewatch MPS 225124
2007 11 02.23412 03 19 15.27 +20 07 51.4 20.4 V 691 – Steward Observatory, Kitt Peak-Spacewatch MPS 225124
2007 11 04.26928 03 17 19.41 +20 05 18.8   691 – Steward Observatory, Kitt Peak-Spacewatch MPS 250546
2007 11 04.28697 03 17 18.33 +20 05 17.7   691 – Steward Observatory, Kitt Peak-Spacewatch MPS 250546
2007 11 04.30466 03 17 17.29 +20 05 16.1   691 – Steward Observatory, Kitt Peak-Spacewatch MPS 250546
2007 11 19.08580 03 02 26.61 +19 38 33.7   691 – Steward Observatory, Kitt Peak-Spacewatch MPS 250546
2007 11 19.10345 03 02 25.58 +19 38 31.5   691 – Steward Observatory, Kitt Peak-Spacewatch MPS 250546
2007 11 19.12110 03 02 24.47 +19 38 29.9   691 – Steward Observatory, Kitt Peak-Spacewatch MPS 250546
2009 04 20.14406 12 37 32.54 -01 58 17.3 20.6 V 691 – Steward Observatory, Kitt Peak-Spacewatch MPS 284459
2009 04 20.17177 12 37 31.24 -01 58 13.0 21.4 V 691 – Steward Observatory, Kitt Peak-Spacewatch MPS 284459
2009 04 20.19605 12 37 30.14 -01 58 09.0 21.3 V 691 – Steward Observatory, Kitt Peak-Spacewatch MPS 284459
2009 04 26.14517 12 33 21.92 -01 44 14.5   291 – LPL/Spacewatch II MPS 285718
2009 04 26.16180 12 33 21.28 -01 44 12.3   291 – LPL/Spacewatch II MPS 285718
2009 04 26.17857 12 33 20.62 -01 44 10.7   291 – LPL/Spacewatch II MPS 285718
2011 09 23.45850 01 26 38.298 +06 37 15.83 21.5 w F51 – Pan-STARRS 1, Haleakala MPS 392714
2011 09 23.47387 01 26 37.621 +06 37 13.06 21.4 w F51 – Pan-STARRS 1, Haleakala MPS 392714
2011 09 23.48927 01 26 36.941 +06 37 10.29 21.5 w F51 – Pan-STARRS 1, Haleakala MPS 392714
2011 09 23.50481 01 26 36.248 +06 37 07.73 21.4 w F51 – Pan-STARRS 1, Haleakala MPS 392714
2011 10 25.26432 00 58 59.422 +04 44 56.35 21.0 r F51 – Pan-STARRS 1, Haleakala MPS 396377
2011 10 25.28239 00 58 58.465 +04 44 52.73 20.7 r F51 – Pan-STARRS 1, Haleakala MPS 396377
2013 02 06.35104 11 22 17.31 +10 26 44.6 21.0 V 691 – Steward Observatory, Kitt Peak-Spacewatch MPS 453739
2013 02 06.36878 11 22 16.69 +10 26 48.5 20.9 V 691 – Steward Observatory, Kitt Peak-Spacewatch MPS 453739
2013 02 06.38651 11 22 16.04 +10 26 52.8 21.2 V 691 – Steward Observatory, Kitt Peak-Spacewatch MPS 453739
2013 02 14.46766 11 16 52.42 +11 01 52.9 20.4 V G96 – Mt. Lemmon Survey MPS 453739
2013 02 14.47294 11 16 52.21 +11 01 54.2 20.6 V G96 – Mt. Lemmon Survey MPS 453739
2013 02 14.47826 11 16 51.96 +11 01 55.3 20.2 V G96 – Mt. Lemmon Survey MPS 453739
2013 02 14.48354 11 16 51.70 +11 01 57.3 20.7 V G96 – Mt. Lemmon Survey MPS 453739
2013 03 03.48608 11 02 01.655 +12 20 04.47 20.5 r F51 – Pan-STARRS 1, Haleakala MPS 459238
2013 03 03.49880 11 02 00.932 +12 20 07.33 20.3 i F51 – Pan-STARRS 1, Haleakala MPS 459238
2013 03 03.51128 11 02 00.189 +12 20 10.61 20.2 i F51 – Pan-STARRS 1, Haleakala MPS 459238
2017 01 09.34286 08 55 21.21 +24 57 59.6 21.3 V G96 – Mt. Lemmon Survey MPS 758867
2017 01 09.34715 08 55 20.99 +24 58 00.6 21.0 V G96 – Mt. Lemmon Survey MPS 758867
2017 01 09.35155 08 55 20.80 +24 58 02.1 21.8 V G96 – Mt. Lemmon Survey MPS 758867
2017 01 09.35589 08 55 20.60 +24 58 03.3 20.8 V G96 – Mt. Lemmon Survey MPS 758867
2017 01 26.32534 08 39 21.43 +26 09 22.6 20.4 V G96 – Mt. Lemmon Survey MPS 761943
2017 01 26.32966 08 39 21.14 +26 09 24.0 20.3 V G96 – Mt. Lemmon Survey MPS 761943
2017 01 26.33830 08 39 20.55 +26 09 26.7 20.0 V G96 – Mt. Lemmon Survey MPS 761943
2017 01 28.35114 08 37 16.57 +26 16 08.3 20.3 V 691 – Steward Observatory, Kitt Peak-Spacewatch MPS 765701
2017 01 28.36457 08 37 15.71 +26 16 10.9 20.5 V 691 – Steward Observatory, Kitt Peak-Spacewatch MPS 765701
2017 01 28.37797 08 37 14.83 +26 16 13.5 20.4 V 691 – Steward Observatory, Kitt Peak-Spacewatch MPS 765701
2017 01 29.26913 08 36 20.38 +26 19 01.2 20.5 V 691 – Steward Observatory, Kitt Peak-Spacewatch MPS 765701
2017 01 29.28008 08 36 19.69 +26 19 03.2 20.6 V 691 – Steward Observatory, Kitt Peak-Spacewatch MPS 765701
2017 01 29.29122 08 36 18.96 +26 19 05.3 20.5 V 691 – Steward Observatory, Kitt Peak-Spacewatch MPS 765701
2017 02 04.27499 08 30 19.37 +26 34 49.2 20.5 V G96 – Mt. Lemmon Survey MPS 767144
2017 02 04.27923 08 30 19.09 +26 34 50.7 20.7 V G96 – Mt. Lemmon Survey MPS 767144
2017 02 04.28345 08 30 18.85 +26 34 50.9 20.9 V G96 – Mt. Lemmon Survey MPS 767144
2017 02 04.28770 08 30 18.60 +26 34 51.1 20.3 V G96 – Mt. Lemmon Survey MPS 767144
2017 02 14.42676 08 21 21.792 +26 48 34.29 20.5 i F51 – Pan-STARRS 1, Haleakala MPS 768102
2017 02 14.42748 08 21 21.732 +26 48 34.25 20.6 i F51 – Pan-STARRS 1, Haleakala MPS 768102
2017 02 14.43951 08 21 21.157 +26 48 34.45 20.5 i F51 – Pan-STARRS 1, Haleakala MPS 768102
2017 02 14.44025 08 21 21.099 +26 48 34.26 20.8 i F51 – Pan-STARRS 1, Haleakala MPS 768102
2017 02 14.45220 08 21 20.522 +26 48 34.78 20.7 i F51 – Pan-STARRS 1, Haleakala MPS 768102
2017 02 14.45295 08 21 20.486 +26 48 34.73 20.4 i F51 – Pan-STARRS 1, Haleakala MPS 768102
2017 02 14.46497 08 21 19.920 +26 48 34.99 20.7 i F51 – Pan-STARRS 1, Haleakala MPS 768102
2017 02 21.28659 08 16 41.763 +26 48 28.96 21.2 w F51 – Pan-STARRS 1, Haleakala MPS 771704
2017 02 21.29824 08 16 41.338 +26 48 28.54 21.0 w F51 – Pan-STARRS 1, Haleakala MPS 771704
2017 02 21.30994 08 16 40.907 +26 48 28.25 20.9 w F51 – Pan-STARRS 1, Haleakala MPS 771704
2017 02 21.32172 08 16 40.449 +26 48 28.12 21.0 w F51 – Pan-STARRS 1, Haleakala MPS 771704
2018 06 14.34198 15 37 41.938 -23 02 15.82 21.8 w F51 – Pan-STARRS 1, Haleakala MPS 898164
2018 06 14.35309 15 37 41.423 -23 02 14.74 21.6 w F51 – Pan-STARRS 1, Haleakala MPS 898164
2018 06 14.36421 15 37 40.918 -23 02 13.35 21.8 w F51 – Pan-STARRS 1, Haleakala MPS 898164
2018 06 14.37530 15 37 40.424 -23 02 12.02 21.6 w F51 – Pan-STARRS 1, Haleakala MPS 898164
2019 08 24.38611 21 59 50.371 -18 45 12.60 21.7 w F51 – Pan-STARRS 1, Haleakala MPS 1031089
2019 08 24.39708 21 59 49.740 -18 45 15.32 21.7 w F51 – Pan-STARRS 1, Haleakala MPS 1031089
2019 08 24.40807 21 59 49.116 -18 45 18.02 21.7 w F51 – Pan-STARRS 1, Haleakala MPS 1031089
2019 08 24.41904 21 59 48.502 -18 45 20.46 21.8 w F51 – Pan-STARRS 1, Haleakala MPS 1031089
2020 12 17.317898 05 43 36.26 +29 23 20.9 20.21 G G96 – Mt. Lemmon Survey MPS 1326219
2020 12 17.323342 05 43 35.89 +29 23 21.0 20.28 G G96 – Mt. Lemmon Survey MPS 1326219
2020 12 17.328761 05 43 35.53 +29 23 21.5 20.35 G G96 – Mt. Lemmon Survey MPS 1326219
2020 12 17.334193 05 43 35.14 +29 23 21.9 20.22 G G96 – Mt. Lemmon Survey MPS 1326219
2021 01 04.213127 05 25 21.28 +29 26 00.1 20.65 G G96 – Mt. Lemmon Survey MPS 1343210
2021 01 04.218278 05 25 20.99 +29 26 00.4 20.85 G G96 – Mt. Lemmon Survey MPS 1343210
2021 01 04.223426 05 25 20.70 +29 26 00.0 20.74 G G96 – Mt. Lemmon Survey MPS 1343210
2021 01 04.228573 05 25 20.42 +29 25 59.5 20.42 G G96 – Mt. Lemmon Survey MPS 1343210
2021 01 07.240395 05 22 51.66 +29 23 38.8 20.61 G G96 – Mt. Lemmon Survey MPS 1343210
2021 01 07.245709 05 22 51.39 +29 23 38.4 20.62 G G96 – Mt. Lemmon Survey MPS 1343210
2021 01 07.251018 05 22 51.14 +29 23 38.0 20.75 G G96 – Mt. Lemmon Survey MPS 1343210
2021 01 07.256385 05 22 50.87 +29 23 37.7 20.76 G G96 – Mt. Lemmon Survey MPS 1343210
2021 01 17.098579 05 16 42.39 +29 12 39.4 21.45 G G96 – Mt. Lemmon Survey MPS 1343210
2021 01 17.104150 05 16 42.22 +29 12 38.4 20.60 G G96 – Mt. Lemmon Survey MPS 1343210
2021 01 17.111069 05 16 42.05 +29 12 38.6 21.48 G G96 – Mt. Lemmon Survey MPS 1343210
2021 01 17.116637 05 16 41.86 +29 12 38.2 21.34 G G96 – Mt. Lemmon Survey MPS 1343210
2022 03 02.599748 14 54 37.967 -15 58 09.08 21.74 w F52 – Pan-STARRS 2, Haleakala MPS 1569786
2022 03 02.611847 14 54 38.082 -15 58 10.51 21.82 w F52 – Pan-STARRS 2, Haleakala MPS 1569786
2022 03 02.635941 14 54 38.334 -15 58 13.27 22.17 w F52 – Pan-STARRS 2, Haleakala MPS 1569786
2022 04 27.434815 14 27 04.596 -15 12 14.89 20.84 w F52 – Pan-STARRS 2, Haleakala MPS 1591442
2022 04 27.456728 14 27 03.306 -15 12 10.78 20.91 w F52 – Pan-STARRS 2, Haleakala MPS 1591442
2022 04 27.467644 14 27 02.670 -15 12 08.97 20.82 w F52 – Pan-STARRS 2, Haleakala MPS 1591442